Flag for India Weather past 2 weeks in Jalpaiguri, West Bengal, India

Now
48 °F

Fog.


Feels Like: 48 °F
Forecast: 53 / 78 °F
Wind: No wind

Location: Varanasi / Babatpur

Current Time: Dec 23, 2014 at 8:17:03 AM

Latest Report: Dec 23, 2014 at 7:00 AM


Visibility: 0 mi

Pressure: 30.07 "Hg

Humidity: 100%

Dew point: 48 °F

Location of JalpaiguriLocation

Historic Weather in Jalpaiguri — Graph

°F

Jalpaiguri temperature yesterday

Maximum temperature yesterday: 61 °F (at 3:00 PM)
Minimum temperature yesterday: 43 °F (at 7:00 AM)
Average temperature yesterday: 51 °F

Past Weeks' High & Low Weather Summary

 TemperatureHumidityPressure
High77 °F (Dec 8, 2:00 PM)100% (Dec 9, 4:00 AM)30.24 "Hg (Dec 9, 4:00 AM)
Low43 °F (Dec 22, 7:00 AM)34% (Dec 9, 3:00 PM)29.92 "Hg (Dec 8, 4:00 PM)
Average60 °F82%30.05 "Hg
* Reported Dec 8 8:00 AM — Dec 23 7:00 AM, Jalpaiguri, Weather by CustomWeather, © 2014

Note: Actual official high and low records may vary slightly from our data, if they occured in-between our weather recording intervals... More about our weather records

Advertising

Jalpaiguri weather history for previous 24 hours

 ConditionsComfort  
Time TempWeatherWind HumidityBarometerVisibility
7:00 AM
Dec 23
48 °FFog.No wind100%30.07 "Hg0 mi
6:00 AM48 °FFog.No wind100%30.04 "Hg0 mi
5:00 AM48 °FFog.No wind100%30.04 "Hg0 mi
4:00 AM50 °FFog.1 mph100%30.04 "Hg0 mi
12:00 AM50 °FFog.1 mph100%30.04 "Hg0 mi
11:00 PM
Dec 22
50 °FFog.1 mph100%30.07 "Hg0 mi
10:00 PM52 °FFog.No wind100%30.07 "Hg0 mi
9:00 PM52 °FFog.2 mph100%30.04 "Hg0 mi
8:00 PM52 °FFog.6 mph94%30.04 "Hg0 mi
7:00 PM54 °FFog.5 mph94%30.01 "Hg1 mi
5:00 PM57 °FFog.3 mph82%29.98 "Hg1 mi
4:00 PM61 °FHaze.5 mph68%29.98 "Hg1 mi
3:00 PM61 °FHaze.3 mph68%29.98 "Hg1 mi
12:00 PM52 °FFog.2 mph88%30.07 "Hg0 mi
11:00 AM48 °FFog.No wind100%30.09 "Hg0 mi
10:00 AM46 °FFog.No wind93%30.09 "Hg0 mi
9:00 AM45 °FFog.2 mph93%30.09 "Hg0 mi
8:00 AM45 °FFog.No wind93%30.07 "Hg0 mi
Weather by CustomWeather, © 2014

See weather overviewHow to use our weather pages